Content
SEND FEEDBACK

Daily
Averages
Monthly
Summary
United States of America

BIG RAPIDS, MICHIGAN


Home > North America > United States > Michigan
Elevation: 1050 feet     Latitude: 43 53N     Longitude: 085 31W

WEATHER
 
SELECT A DAY
Number of Records: 411,717;   Date Range: 3/2/98 - 11/26/14
 
SHARE

PRINT THIS DATA

[ ← Previous Day ]
WEATHER ALMANAC - JULY 22, 2014
[ Next Day → ]
[ °C ]   °F
Weather ElementAverageHighLow
Temperature73.6 °F86.5 °F (4:35 pm)59.2 °F (6:35 am)
Dewpoint65.1 °F69.1 °F (11:15 pm)59.2 °F (6:35 am)
Humidity77.1 %100 % (12:34 am)53 % (3:34 pm)
Barometer29.99 in30.09 in (12:34 am)29.89 in (9:15 pm)
Wind Speed8 mph19.6 mph (11:54 pm)
Wind Gust29.9 mph (1:35 pm)
Weather ElementAverage
Visibility8.1 mi
Wind DirectionSSE (156.2 °)

Weather ElementTotal
Precipitation---
Cooling Degree Days7.8 (Base 65)
Growing Degree Days22.9 (Base 50)
Averaged from 69 records on July 22, 2014
WEATHER CONDITIONS BREAKOUT
WIND DIRECTION BREAKOUT
WEATHER BY HOUR - JULY 22, 2014
[ °C ]   °F
Local TimeTemperatureDewpointHumidityBarometerVisibilityWind DirectionWind SpeedGust SpeedPrecipitationEventsConditions
12:34 AM64.4 °F64.4 °F100 %30.09 in5.0 miCalmClear
12:55 AM64.8 °F64.4 °F99 %30.09 in7.0 miCalmClear
1:15 AM63.9 °F63.9 °F100 %30.08 in5.0 miCalmClear
1:34 AM64.0 °F64.0 °F100 %30.07 in7.0 miCalmClear
1:55 AM63.5 °F63.5 °F100 %30.07 in7.0 miCalmClear
2:15 AM63.0 °F63.0 °F100 %30.07 in5.0 miCalmClear
2:34 AM63.5 °F63.5 °F100 %30.07 in7.0 miCalmClear
2:55 AM63.1 °F63.1 °F100 %30.07 in7.0 miCalmClear
3:15 AM61.9 °F61.9 °F100 %30.06 in4.0 miSE (130°)3.5 mphClear
3:34 AM61.9 °F61.9 °F100 %30.06 in5.0 miCalmClear
3:55 AM61.5 °F61.5 °F100 %30.05 in4.0 miESE (110°)4.6 mphClear
4:14 AM61.9 °F61.9 °F100 %30.06 in5.0 miCalmClear
4:34 AM60.8 °F60.8 °F100 %30.06 in2.0 miEast (100°)6.9 mphClear
4:55 AM60.6 °F60.6 °F100 %30.05 in3.0 miEast (100°)6.9 mphClear
5:15 AM60.8 °F60.8 °F100 %30.05 in3.0 miCalmClear
5:34 AM60.1 °F60.1 °F100 %30.06 in2.5 miCalmClear
5:55 AM59.4 °F59.4 °F100 %30.05 in1.0 miCalmScattered Clouds
6:14 AM59.5 °F59.5 °F100 %30.06 in1.2 miCalmMist
6:35 AM59.2 °F59.2 °F100 %30.06 in4.0 miCalmClear
6:55 AM59.5 °F59.5 °F100 %30.07 in2.0 miCalmClear
7:14 AM60.8 °F60.8 °F100 %30.07 in4.0 miCalmClear
7:35 AM62.2 °F62.2 °F100 %30.07 in4.0 miCalmClear
7:55 AM66.0 °F66.0 °F100 %30.07 in5.0 miSSE (160°)4.6 mphClear
8:14 AM68.9 °F68.0 °F97 %30.06 in7.0 miSSE (160°)5.8 mphClear
8:35 AM70.3 °F68.5 °F94 %30.05 in10.0 miSSE (150°)5.8 mphClear
8:55 AM72.0 °F68.7 °F89 %30.04 in10.0 miSouth (180°)5.8 mphClear
9:14 AM73.6 °F68.7 °F85 %30.03 in10.0 miSouth (190°)9.2 mphClear
9:35 AM75.0 °F68.2 °F79 %30.03 in10.0 miSSW (200°)9.2 mphClear
9:55 AM76.1 °F64.8 °F68 %30.02 in10.0 miSSW (200°)9.2 mph24.2 mphClear
10:14 AM76.6 °F64.8 °F67 %30.01 in10.0 miSSW (210°)10.4 mph24.2 mphClear
10:35 AM77.4 °F65.1 °F66 %30.01 in10.0 miSW (220°)10.4 mph24.2 mphClear
10:55 AM78.4 °F64.9 °F63 %30.00 in10.0 miSSW (210°)10.4 mph24.2 mphClear
11:14 AM79.0 °F64.9 °F62 %30.00 in10.0 miSW (230°)12.7 mph19.6 mphClear
11:35 AM80.4 °F66.2 °F62 %30.00 in10.0 miSSW (200°)9.2 mphScattered Clouds
11:54 AM80.4 °F65.5 °F60 %29.98 in10.0 miSW (220°)10.4 mph23.0 mphScattered Clouds
12:14 PM82.0 °F66.2 °F59 %29.99 in10.0 miSW (230°)13.8 mph21.9 mphScattered Clouds
12:35 PM80.4 °F65.7 °F61 %29.98 in10.0 miSW (230°)12.7 mph21.9 mphScattered Clouds
1:15 PM80.4 °F65.1 °F59 %29.99 in10.0 miSW (230°)16.1 mph24.2 mphOvercast
1:35 PM80.4 °F65.3 °F60 %29.98 in10.0 miSW (220°)17.3 mph29.9 mphOvercast
1:54 PM81.9 °F65.8 °F58 %29.97 in10.0 miSSW (210°)13.8 mph21.9 mphMostly Cloudy
2:15 PM81.9 °F64.9 °F56 %29.97 in10.0 miSSW (210°)15.0 mph24.2 mphOvercast
2:34 PM82.6 °F65.3 °F56 %29.95 in10.0 miSW (220°)11.5 mph25.3 mphMostly Cloudy
2:54 PM83.5 °F65.3 °F54 %29.94 in10.0 miSSW (210°)15.0 mph25.3 mphScattered Clouds
3:15 PM84.0 °F65.8 °F54 %29.94 in10.0 miSouth (190°)16.1 mph24.2 mphClear
3:34 PM84.6 °F65.7 °F53 %29.92 in10.0 miSW (220°)16.1 mph23.0 mphClear
3:54 PM84.9 °F66.2 °F53 %29.91 in10.0 miSSW (200°)15.0 mph23.0 mphClear
4:15 PM85.5 °F66.4 °F53 %29.91 in10.0 miSW (220°)16.1 mph20.7 mphScattered Clouds
4:35 PM86.5 °F67.5 °F53 %29.91 in10.0 miSW (230°)10.4 mph20.7 mphScattered Clouds
4:54 PM85.1 °F67.1 °F55 %29.91 in10.0 miSW (220°)13.8 mph20.7 mphClear
5:15 PM83.8 °F67.3 °F57 %29.92 in10.0 miSW (230°)13.8 mph23.0 mphMostly Cloudy
5:35 PM82.6 °F67.5 °F60 %29.93 in10.0 miWSW (250°)13.8 mph20.7 mphOvercast
5:54 PM81.9 °F67.3 °F61 %29.94 in10.0 miWSW (240°)11.5 mphOvercast
6:15 PM81.5 °F67.1 °F61 %29.93 in10.0 miWSW (240°)12.7 mph19.6 mphOvercast
6:35 PM81.1 °F66.7 °F61 %29.93 in10.0 miWSW (250°)12.7 mph19.6 mphOvercast
6:54 PM80.8 °F66.4 °F61 %29.93 in10.0 miWSW (240°)11.5 mph21.9 mphOvercast
7:15 PM81.5 °F66.7 °F61 %29.92 in10.0 miSW (220°)10.4 mph19.6 mphMostly Cloudy
7:35 PM80.6 °F66.4 °F62 %29.93 in10.0 miSW (230°)10.4 mphOvercast
7:54 PM79.7 °F66.2 °F63 %29.92 in10.0 miSW (230°)8.1 mphMostly Cloudy
8:15 PM79.0 °F66.4 °F65 %29.93 in10.0 miSW (220°)8.1 mphScattered Clouds
8:35 PM78.3 °F66.6 °F67 %29.92 in10.0 miSW (230°)4.6 mphClear
8:54 PM78.1 °F66.9 °F68 %29.91 in10.0 miSW (230°)8.1 mphClear
9:15 PM77.9 °F67.1 °F69 %29.89 in10.0 miSW (220°)8.1 mphClear
9:34 PM78.3 °F67.3 °F69 %29.91 in10.0 miWSW (240°)8.1 mphScattered Clouds
10:15 PM78.1 °F68.0 °F71 %29.93 in10.0 miWest (260°)13.8 mph18.4 mphOvercast
10:34 PM77.2 °F67.3 °F71 %29.92 in10.0 miWest (280°)8.1 mph16.1 mphScattered Clouds
10:54 PM77.0 °F68.4 °F75 %29.93 in10.0 miNW (310°)9.2 mph17.3 mphMostly Cloudy
11:15 PM75.7 °F69.1 °F80 %29.95 in10.0 miWNW (300°)12.7 mph17.3 mphMostly Cloudy
11:34 PM74.7 °F68.7 °F82 %29.95 in10.0 miNNW (340°)9.2 mph18.4 mphScattered Clouds
11:54 PM73.6 °F66.6 °F79 %29.96 in10.0 miNorth (10°)19.6 mph29.9 mphMostly Cloudy
Hourly data recorded from KRQB, located miles away from Big Rapids, Michigan







STORIES FROM OUR PARTNERS